Location: Kiltepe
(36.4752°N, 30.0120°E)
Time: 17:13:02
(UTC+00:00)

CZ-4B R/B - Pass Details

Date: 03 August 2024
Orbit: 462 x 606 km, 97.9° (Epoch: 19 September)

Event Time Altitude Azimuth Distance (km) Brightness Sun altitude
Rises 16:01:02 0° 104° (ESE) 2,572 5.6 11.1°
Enters shadow 17:04:44 -63° 170° (S) 11,991 9.4 -1.0°
Maximum altitude 17:38:27 75° 258° (WSW) 509 2.8 -7.2°
